Regional Weather Roundup
Issued by NWS Charleston, SC

Current Version | Previous Version | Text Only | Print | Product List | Glossary Off
Versions: 1 2 3 4 5 6 7 8 9 10 11 12 13 14 15 16 17 18 19 20 21 22 23 24 25 26 27 28 29 30 31 32 33 34 35 36 37 38 39 40 41 42 43 44 45 46 47 48 49 50

000
ASUS42 KCHS 261212
RWRCHS

REGIONAL WEATHER ROUNDUP
NATIONAL WEATHER SERVICE CHARLESTON SC
800 AM EDT MON JUN 26 2017

NOTE: "FAIR" INDICATES FEW OR NO CLOUDS BELOW 12,000 FEET WITH NO
SIGNIFICANT WEATHER AND/OR OBSTRUCTIONS TO VISIBILITY.

NOT ALL STATIONS ARE QUALITY CONTROLLED. USE DATA WITH CAUTION...
ESPECIALLY DEWPOINT OBSERVATIONS.

SCZ027-030-031-034>040-042>050-261300-
...SOUTHEAST SOUTH CAROLINA...

CITY           SKY/WX    TMP DP  RH WIND       PRES   REMARKS
N CHARLESTON   PTSUNNY   75  72  90 N7        30.07R
6HR MIN TEMP:  73; 6HR MAX TEMP:  75; 6HR PCP: TRACE;

WATERFRONT PRK   N/A     76  74  93 N5        30.04R
JOHNS ISLAND   CLOUDY    75  75 100 NW6       30.07R
PINOPOLIS        N/A     75  72  88 NE15      30.00R
MONCKS CORNER  FAIR      75  70  83 NE8       30.08R
SUMMERVILLE    FAIR      72  70  94 N5        30.09R
BEAUFORT MCAS  CLOUDY    76  75  97 N6        30.07S
6HR MIN TEMP:  73; 6HR MAX TEMP:  77;

BEAUFORT ARPT  FAIR      73  73 100 N6        30.07R
HILTON HEAD IS MOSUNNY   75  75 100 N8        30.07R
WALTERBORO     CLOUDY    72  70  94 NE3       30.09R
ALLENDALE      FAIR      72  68  88 VRB5      30.08S

...SOUTHERN MIDLANDS AND PEE DEE...

CITY           SKY/WX    TMP DP  RH WIND       PRES   REMARKS
GEORGETOWN     CLOUDY    72  72 100 NE7       30.08R
KINGSTREE      FAIR      72  63  73 N6        30.09S
ORANGEBURG     MOSUNNY   74  64  71 NE8       30.10R
6HR MIN TEMP:  72; 6HR MAX TEMP:  75;

BARNWELL       FAIR      75  66  73 N8        30.10S
AIKEN          PTSUNNY   70  61  73 N10       30.15S
MANNING        FAIR      73  68  83 NE14G22   30.09S
COLUMBIA       MOSUNNY   74  61  63 NE6       30.11S
6HR MIN TEMP:  72; 6HR MAX TEMP:  77;

SUMTER         MOSUNNY   72  60  64 N8        30.09R
6HR MIN TEMP:  71; 6HR MAX TEMP:  74;

FLORENCE       MOSUNNY   74  60  61 NE9       30.11R
6HR MIN TEMP:  71; 6HR MAX TEMP:  76;

MYRTLE BEACH   PTSUNNY   73  64  73 NE12      30.09R
N MYRTLE BEACH CLOUDY    73  66  78 N8        30.08R
6HR MIN TEMP:  72; 6HR MAX TEMP:  76;


$$

GAZ063-065-086>088-099>101-113>116-118-119-134>141-150-261300-
...SOUTHEAST GEORGIA...

CITY           SKY/WX    TMP DP  RH WIND       PRES   REMARKS
SAVANNAH ARPT  CLOUDY    77  73  87 N5        30.08R
6HR MIN TEMP:  75; 6HR MAX TEMP:  77; 6HR PCP: TRACE;

HUNTER AAF     CLOUDY    76  74  95 W3        30.05R
6HR MIN TEMP:  75; 6HR MAX TEMP:  76; 6HR PCP:  0.01;

FORT STEWART   PTSUNNY   74  73  96 CALM      30.05S FOG
6HR MIN TEMP:  74; 6HR MAX TEMP:  74; 6HR PCP:  0.01;

STATESBORO     PTSUNNY   76  76 100 CALM      30.08S
SYLVANIA       MOSUNNY   76  74  96 NE3       30.10R
CLAXTON        CLOUDY    74  73  98 CALM      30.08R FOG

...CSRA...CENTRAL AND FAR SOUTHEAST GEORGIA...

CITY           SKY/WX    TMP DP  RH WIND       PRES   REMARKS
THOMSON        SUNNY     71  61  71 E6        30.18R
AUGUSTA-BUSH   CLOUDY    75  63  66 N7        30.10R
6HR MIN TEMP:  74; 6HR MAX TEMP:  77;

AUGUSTA-DANIEL CLOUDY    74  60  61 N8        30.12R
SWAINSBORO     PTSUNNY   73  70  88 NE3       30.11R
VIDALIA        CLOUDY    75  73  94 CALM      30.09R FOG
EASTMAN        FAIR      71  69  95 CALM      30.13R
HAZLEHURST       N/A     73  73 100 N5        30.08R
ALMA           CLOUDY    75  70  84 NW6       30.07S
6HR MIN TEMP:  73; 6HR MAX TEMP:  75;

WAYCROSS       CLOUDY    78  78 100 CALM      30.07S
JESUP          CLOUDY    75  72  88 CALM      30.07S FOG
BAXLEY         FAIR      73  73 100 CALM      30.08R
BRUNSWICK      DRIZZLE   75  75 100 CALM      30.07F
SAINT SIMONS   CLOUDY    78  74  87 CALM      30.06S
6HR MIN TEMP:  77; 6HR MAX TEMP:  79;


$$

SCZ027-028-034-036>038-045-046-048>050-GAZ119-141-261300-
...LAKE AND SUPPLEMENTAL COASTAL OBSERVATIONS...

STATION/POSITION TIME  TEMP    WIND        PRES    WAVE   SWELL
                       AIR SEA DIR/SP/G            HT/PER HT/PER/DIR
                 (UTC) (F)     (DEG/KT/KT) (MB)    (FT/S) (FT/S/D)
WINYAH BAY       NOT AVBL
LAKE MURRAY      1120   70     360/  1/  4 1019.0
ACE BASIN NERRS  1045   73        CALM     1018.0
FORT PULASKI     1148   76 84  350/  5/  6 1018.3R
SAPELO ISLAND    1100   76        CALM     1018.0

$$

ANZ835-935-AMZ111-154-330-350-352-354-370-450-454-472-261300-
...C-MAN AND BUOY OBSERVATIONS...

STATION/POSITION TIME  TEMP    WIND        PRES    WAVE   SWELL
                       AIR SEA DIR/SP/G            HT/PER HT/PER/DIR
                 (UTC) (F)     (DEG/KT/KT) (MB)    (FT/S) (FT/S/D)
BUOY 41004       1150   79 81   40/ 10/ 14 1017.0R   2/ 8   2/130/ 8
BUOY 41008       1050   79 82  280/  8/ 10 1017.5    2/ 8   2/100/ 8
FOLLY BEACH CMAN 1100   76     300/  1/  2 1018.1R
CAPERS NEARSHORE 1108   81 83  360/ 10/ 16 1017.4R
FRIPP NEARSHORE  1108   78 83   10/  8/ 12 1017.4R


STATION/POSITION TIME  TEMP    WIND        PRES    WAVE   SWELL
                       AIR SEA DIR/SP/G            HT/PER HT/PER/DIR
                 (UTC) (F)     (DEG/KT/KT) (MB)    (FT/S) (FT/S/D)
5E ST. MARYS GA  1130      80                N/A     2/ 8
FRYING PAN BUOY  1150   74 81   40/  6/  6 1017.8R   2/ 5   2/180/ 5
BUOY 41025       1150   78 79  360/ 12/ 14 1017.8R   2/ 8   2/130/ 8
CAPE LOOKOUT NC  1100   76      10/  8/ 10 1017.7R
BUOY 41002       1150   80 80  190/ 12/ 12 1018.4F   3/ 5   2/120/ 8
BUOY 41010       1150   83 83  190/ 12/ 16 1018.1R   3/ 8   2/120/ 8
ST AUGUSTINE FL  1200   79 76  250/  3/  4 1018.3R


$$




USA.gov is the U.S. government's official web portal to all federal, state and local government web resources and services.